Regional Weather Roundup
Issued by NWS Goodland, KS

Home | Current Version | Previous Version | Text Only | Print | Product List | Glossary On
Versions: 1 2 3 4 5 6 7 8 9 10 11 12 13 14 15 16 17 18 19 20 21 22 23 24 25 26 27 28 29 30 31 32 33 34 35 36 37 38 39 40 41 42 43 44 45 46 47 48 49 50
000
ASUS43 KGLD 311408
RWRGLD

GOODLAND FORECAST AREA HOURLY WEATHER ROUNDUP
NATIONAL WEATHER SERVICE GOODLAND KS
800 AM MDT TUE MAY 31 2016

...OFFICIAL OBSERVATIONS...

CITY           SKY/WX    TMP DP  RH WIND       PRES   REMARKS
GOODLAND KS    CLOUDY    57  50  77 N15       30.11R
HILL CITY KS   CLOUDY    62  56  80 N16G22    30.04R
IMPERIAL NEB   SUNNY     56  45  66 N12       30.12R
MCCOOK NEB     MOSUNNY   59  50  72 N10       30.08R
AKRON CO       CLOUDY    51  47  86 NW7       30.16S
BURLINGTON CO  SUNNY     56  46  69 N17       30.12F
LIMON CO       CLOUDY    48  46  93 N14       30.17S
$$

...UNOFFICIAL OBSERVATIONS...

CITY           SKY/WX    TMP DP  RH WIND       PRES   REMARKS
GOVE KS          N/A    N/A N/A N/A MISG        N/A
LENORA KS        N/A     59  32  36 MISG        N/A
SHARON SPRINGS   N/A     59  54  84 NE18        N/A
TRIBUNE KS     MOSUNNY   61  54  77 N15       30.09R
KIT CARSON CO    N/A     55  49  82 MISG        N/A
YUMA CO          N/A     55  46  73 CALM        N/A
$$




USA.gov is the U.S. government's official web portal to all federal, state and local government web resources and services.